Regional Weather Roundup
Issued by NWS Wakefield, VA

Home | Current Version | Previous Version | Text Only | Print | Product List | Glossary Off
Versions: 1 2 3 4 5 6 7 8 9 10 11 12 13 14 15 16 17 18 19 20 21 22 23 24 25 26 27 28 29 30 31 32 33 34 35 36 37 38 39 40 41 42 43 44 45 46 47 48 49 50

000
ASUS41 KAKQ 280714
RWRAKQ

REGIONAL WEATHER ROUNDUP
NATIONAL WEATHER SERVICE WAKEFIELD VA
300 AM EDT TUE APR 28 2015

Note: "fair" indicates few or no clouds below 12,000 feet with no
significant weather and/or obstructions to visibility. * = Denotes
station may not report precipitation (e.g., rain,snow,etc.),
thunder or fog.

VAZ042-051-052>054-056-280800-
NORTHERN VIRGINIA

CITY           SKY/WX    TMP DP  RH WIND       PRES   REMARKS
WASH NATIONAL  PTCLDY    49  35  58 NW15G23   29.89F
DULLES         PTCLDY    45  33  63 NW13      29.90F
FORT BELVOIR   CLEAR     47  34  62 NW14G21   29.89F
QUANTICO       CLEAR     47  33  58 NW15G26   29.90F
FREDERICKSBRG* CLEAR     47  35  61 NW7       29.90F
STAFFORD*      CLEAR     44  32  62 NW12      29.94F
WARRENTON      CLEAR     45  36  70 NW7       29.90F
CULPEPER*      CLEAR     46  34  61 CALM      29.92F
MANASSAS*      CLEAR     46  36  66 NW14G20   29.91F
LEESBURG*      CLOUDY    46  36  66 NW14      29.92F
WINCHESTER     CLOUDY    46  32  57 NW10G17   29.93F
FRONT ROYAL*   PTSUNNY   45  32  61 W3        29.93F
LURAY*         FAIR      43  34  70 CALM      29.95F
$$

VAZ048-049-060>072-079>083-280800-
CENTRAL AND SOUTH CENTRAL VIRGINIA

CITY           SKY/WX    TMP DP  RH WIND       PRES   REMARKS
RICHMOND       CLEAR     48  34  58 NW13      29.90F
CHESTERFIELD*  FAIR      48  28  46 N10G16    29.91F
PETERSBURG*    CLEAR     48  35  59 N8        29.90F
HANOVER        CLEAR     47  34  60 NW8       29.92F
TAPPAHANNOCK*  CLEAR     47  32  55 NW7       29.89F
QUINTON*       FAIR      46  35  64 NW8       29.89F
CHARLOTTSVILLE CLEAR     46  30  53 NW7       29.92F
GORDONSVILLE*  FAIR      42  33  69 W5        29.92F
ORANGE*        CLEAR     45  34  65 W5        29.93F
LOUISA*        CLEAR     45  34  65 NW6       29.91S
BUMPASS*       FAIR      46  34  63 CALM      29.91F
FARMVILLE*     CLEAR     44  35  70 N5        29.91F
CREWE*         FAIR      44  33  65 NW5       29.91S
FORT PICKETT*  FAIR      45  34  64 N7        29.91R
CHASE CITY*    FAIR      41  39  91 W3        29.92R
CLARKSVILLE*   FAIR      43  34  70 CALM      29.91S
SOUTH HILL*    CLEAR     42  34  74 CALM      29.97R
LAWRENCEVILLE* FAIR      45  35  68 N5        29.90S
EMPORIA*       CLEAR     43  34  70 W3        29.92R
$$

VAZ088>098-280800-
SOUTHEAST VIRGINIA

CITY           SKY/WX    TMP DP  RH WIND       PRES   REMARKS
NORFOLK        CLEAR     52  36  54 N13G25    29.85F
VIRGINIA BEACH CLEAR     52  39  61 NW18G28   29.84F
NORFOLK NAVAL  CLEAR     54  38  54 NW21      29.87F
WEST POINT*    CLEAR     50  34  53 NW9       29.89F
SALUDA*        FAIR      49  38  64 NW14G25   29.86F
NEWPORT NEWS   CLEAR     52  36  54 NW12      29.86F
LANGLEY AFB    CLEAR     50  36  60 NW16G25   29.84F
FORT EUSTIS    CLEAR     50  37  59 N13G25    29.85F
WILLIAMSBURG*  CLEAR     50  37  62 N14G24    29.88S
HR EXEC AP*    FAIR      48  37  66 NW5       29.88S
FRANKLIN*      CLEAR     46  36  67 NW6       29.90S
WAKEFIELD      CLEAR     48  36  63 N6        29.88F
$$

VAZ020-022-025-037-045-280800-
WEST CENTRAL AND SOUTHWEST VIRGINIA

CITY           SKY/WX    TMP DP  RH WIND       PRES   REMARKS
STAUNTON*      CLOUDY    45  30  56 N9        29.97F
WAYNESBORO*    PTSUNNY   41  32  69 N9        29.95S
HOT SPRINGS VA CLOUDY    35  29  79 NW10G22   29.90S
LYNCHBURG      CLEAR     44  32  62 CALM      29.93F
DANVILLE       CLEAR     41  34  76 CALM      29.94S
SOUTH BOSTON*  FAIR      40  34  79 CALM      29.92S
MARTINSVILLE   CLEAR     33  33 100 CALM      29.99R
ROANOKE        CLEAR     45  33  63 NW9       29.96F
BLACKSBURG     PTCLDY    42  32  67 N5        29.97S
DUBLIN*        MOCLDY    45  35  68 CALM      29.96S
MARION*        PTCLDY    37  32  81 CALM      30.00R
HILLSVILLE*    CLEAR     39  32  75 N7        29.94S
RICHLANDS*     FAIR      42  30  64 CALM      29.97R
WISE*          CLEAR     41  32  70 CALM      30.00R
ABINGDON*      PTCLDY    46  34  63 CALM      29.97F
$$

MDZ021>025-VAZ099-100-280800-
SOUTHERN MARYLAND AND THE DELMARVA PENINSULA

CITY           SKY/WX    TMP DP  RH WIND       PRES   REMARKS
PATUXENT RIVER CLEAR     48  37  65 NW16G24   29.85F
BAY BRIDGE APT   N/A    N/A N/A N/A NW18G25   29.86S
LEONARDTOWN    CLEAR     46  34  61 W7        29.88F
DOVER          CLOUDY    50  39  67 W14       29.77S
GEORGETOWN     PTCLDY    49  38  65 W8        29.81F
EASTON         CLOUDY    52  41  66 N14       29.88S
CAMBRIDGE      CLOUDY    52  37  58 NW9G24    29.84S
SALISBURY      CLEAR     48  38  68 NW9       29.82F
OCEAN CITY     CLEAR     47  38  71 NW8       29.80F
WALLOPS ISLAND CLEAR     49  40  71 NW12G20   29.82F
ACCOMACK*      PTCLDY    50  19  29 NW12G21   29.84S
$$

NCZ012>017-030>032-280800-
NORTH CENTRAL AND EASTERN NORTH CAROLINA

CITY           SKY/WX    TMP DP  RH WIND       PRES   REMARKS
ROANOKE RAPIDS FAIR      45  36  70 NW3       29.90S
RALEIGH        CLEAR     42  36  79 CALM      29.93S
ELIZABETH CITY CLEAR     48  38  68 NW8       29.87S
AHOSKIE*       CLEAR     42  37  82 CALM      29.90R
EDENTON*       CLEAR     47  39  73 N6        29.88S
CURRITUCK*     CLEAR     48  37  64 W3        29.87R
KILL DEVIL HLS CLEAR     52  41  66 NW6       29.84R
MANTEO         CLEAR     54  37  52 NW8       29.85S
CAPE HATTERAS  CLEAR     52  38  58 VRB6      29.85S
TARBORO*       FAIR      41  40  96 CALM      29.91F
GOLDSBORO      CLEAR     51  37  58 CALM      29.89S
WASHINGTON       N/A     47  38  72 NW3       29.89S
GREENVILLE     CLEAR     45  39  81 CALM      29.92S
NEW BERN       CLEAR     47  41  80 CALM      29.89F
WILMINGTON     PTCLDY    51  38  60 N5        29.89F
$$

VAZ048-280800-
ELSEWHERE

CITY           SKY/WX    TMP DP  RH WIND       PRES   REMARKS
HARRISBURG PA  CLOUDY    50  37  61 NW10      29.87S
BALTIMORE      MOCLDY    48  36  63 NW10G18   29.86F
ANNAPOLIS      MOCLDY    51  38  60 NW13      29.85F
ANDREWS AFB    PTCLDY    47  35  63 NW14      29.87F
PHILADELPHIA   CLOUDY    52  37  56 NW12G22   29.80S
HENDERSON NC   CLEAR     45  32  60 N3        29.91F
GREENSBORO     PTCLDY    44  33  65 CALM      29.93S
ROCKY MOUNT    CLEAR     41  39  93 CALM      29.91S
$$

VAZ100-280800-
MARINE

STATION/POSITION TIME  TEMP    WIND        PRES    WAVE   SWELL
                       AIR SEA DIR/SP/G            HT/PER HT/PER
                 (UTC) (F)     (DEG/KT/KT) (MB)    (FT/S) (FT/S)
BRANDYWINE LGT   0618   51 52  330/ 18/ 21 1008.7F
CAPE MAY NJ      0600   51 56  310/ 13/ 22 1008.3F
LEWES DE         0600   51 53  310/ 20/ 25 1009.0S
15NM E FENWICK I 0650   49 48              1007.7F   3/ 4
OCEAN-CITY-INLET 0600   50 53  330/ 12/ 16 1008.9F
WACHAPREAGUE VA  0600   52 59  320/  4/ 10 1010.4F
THOMAS POINT MD  0700   50 53  310/ 15/ 19 1011.5F
GOOSES REEF MD   0700   49 53  330/ 17/ 21   N/A     2/ 3
COVE POINT MD    0600   49     330/ 16/ 21 1012.0S
SOLOMONS ISLAND  0600      56                N/A
BISHOPS HEAD MD  0600   51 56  320/ 20/ 23 1010.5F
PINEY POINT MD   0600          340/ 24/ 26   N/A
CAMBRIDGE MD     0600   52 58  300/ 14/ 23 1010.7S
LEWISETTA VA     0600   51 58              1011.5F
RAPPAHANNOCK LGT 0600          310/ 24/ 26 1011.3F
YORK RVR RNG VA  0600   52     330/ 22/ 26 1010.8F
YORKTOWN VA      0600   52 60  330/ 19/ 25 1011.2F
JAMESTOWN VA     0700   49 62  350/ 14/ 19 1010.6F
DOMINION TERM VA 0600   53      20/  3/ 13 1011.4F
KIPTOPEKE VA     0600      61  320/ 23/ 26   N/A
CHES BAY BRIDGE  0600   53 57  320/ 23/ 28 1010.5F
CAPE HENRY VA    0600   53     320/ 27/ 29 1009.5F
CHESAPEAKE LGHT  0600   53     330/ 21/ 24 1010.9F
WILLOUBY STN VA  0600   53     330/ 20/ 23 1011.7F
S CRANEY ISL VA  0600          340/ 12/ 20 1011.1F
CAPE HENRY BUOY  0658      51                N/A     4/ 4
OFFSHORE WE BUOY 0611      51                N/A     3/ 4   2/ 7
64NM E OF VA BCH 0650   54 57  330/ 21/ 27 1008.3F   3/ 4   2/ 7
DUCK PIER NC     0600   54 54  300/  8/ 11 1009.6F
44056 DUCK FRF   0611      55                N/A     2/ 8
OREGON INLET NC  0600   53 58  330/  5/  6 1010.5F
HATTERAS NC      0600   58 63  340/ 10/ 14 1010.3F
DIAMOND SHLS NC  0650   59 74  340/ 12/ 16 1010.4F   3/ 8   3/ 8
CAPE LOOKOUT NC  0700   58     360/  9/ 12 1010.9F
$$



USA.gov is the U.S. government's official web portal to all federal, state and local government web resources and services.